[[{"header":{"parameterUnit":"m.s-1","parameterCategory":2,"la1":30.2991,"la2":30.254,"lo1":-89.0895,"lo2":-89.0444,"dy":0.0017,"dx":0.0017,"nx":28,"ny":28,"refTime":"2023-08-30T03:00:00:Z","depth":"0","parameterNumber":2,"parameterNumberName":"U-component_of_CURRENTS"},"data":[0,0,0,0,0,0,0,0,0,0,0,0,0,0,0,0,0,0,0,0,0,0,0,0,0,0,0,0,0,0,0,0,0,0,0,0,0,0,0,0,0,0,0,0,0,0,0,0,0,0,0,0,0,0,0,0,0,0,0.2055,0.2055,0,0.2049,0.2049,0.2049,0.2041,0.2041,0.2041,0.2041,0.2031,0.2031,0.203,0,0,0,0,0,0,0,0,0,0,0,0,0,0.2049,0.2049,0.2055,0.2055,0.2055,0.2049,0.2049,0.2049,0.2041,0.2041,0.2041,0.2041,0.2031,0.2031,0.203,0,0,0,0,0,0,0,0,0,0,0,0,0,0.2046,0.2049,0.2055,0.2052,0.2052,0.2049,0.2049,0.2049,0.2041,0.2041,0.2041,0.2041,0.2031,0.2031,0.203,0.2025,0,0,0.2029,0.2028,0,0,0,0,0,0,0,0,0.2046,0.2046,0.2052,0.2052,0.2052,0.2048,0.2043,0.2041,0.2041,0.2043,0.2041,0.2041,0.2037,0.2036,0.2032,0.2025,0.2024,0.2029,0.2028,0.2028,0.2028,0,0,0,0,0,0,0,0.2047,0.2046,0.2051,0.2053,0.2053,0.2048,0.2047,0.2043,0.2038,0.2043,0.2043,0.2046,0.2037,0.2033,0.2032,0.2024,0.2029,0.2028,0.2028,0.2028,0.2054,0.2055,0,0,0,0,0,0,0.2052,0.2047,0.2051,0.2051,0.2052,0.2048,0.2048,0.2047,0.2038,0.2038,0.2045,0.2045,0.2034,0.2033,0.2032,0.205,0.2028,0.2028,0.2027,0.2053,0.2054,0.2055,0,0,0,0,0,0,0.2052,0.2052,0.2051,0.205,0.205,0.2048,0.2048,0.2047,0.2049,0.2041,0.2039,0.2049,0.2034,0.2032,0.2036,0.2048,0.2027,0.2027,0.2052,0.2053,0.2055,0.207,0,0,0,0,0,0,0.2051,0.2052,0.2053,0.2051,0.205,0.2058,0.2048,0.2047,0.2051,0.205,0.2043,0.2042,0.2034,0.2037,0.2036,0.2047,0.2027,0.205,0.2052,0.2054,0.2068,0.2072,0.2075,0,0,0,0,0,0.2051,0.205,0.2053,0.2054,0.2052,0.2059,0.2058,0.2056,0.2051,0.2056,0.2051,0.2042,0.2048,0.2037,0.2035,0.2047,0.205,0.2052,0.2054,0.2067,0.2071,0.2075,0,0,0,0,0,0,0.2041,0.2049,0.2052,0.2052,0.2061,0.2058,0.2059,0.206,0.2058,0.2057,0.2047,0.2046,0.206,0.2052,0.204,0.2063,0.2051,0.2053,0.2061,0.2065,0.2068,0.208,0.2026,0,0,0,0,0,0.2042,0.2046,0.2055,0.2055,0.206,0.2061,0.2063,0.2065,0.2064,0.2064,0.2059,0.2059,0.2067,0.2064,0.207,0.2072,0.2084,0.2083,0.2086,0.2089,0.2099,0.2129,0.2136,0.2063,0.2063,0.2062,0,0,0.2037,0.2043,0.2044,0.2055,0.2058,0.2067,0.2062,0.2068,0.2077,0.2063,0.2068,0.2072,0.2073,0.2083,0.2088,0.2076,0.2116,0.2092,0.2094,0.2103,0.2132,0.214,0.2146,0.2064,0.2064,0.2064,0,0,0.2032,0.2037,0.2042,0.2053,0.2067,0.207,0.2076,0.208,0.2085,0.2091,0.2092,0.2104,0.2099,0.211,0.2113,0.2138,0.2138,0.214,0.2157,0.2186,0.2192,0.2197,0.2218,0.2225,0.2135,0.2135,0.2135,0,0.2027,0.2035,0.2044,0.2055,0.2066,0.2074,0.2086,0.2092,0.2098,0.211,0.2096,0.2119,0.2115,0.2143,0.2151,0.2146,0.216,0.2137,0.219,0.2195,0.2201,0.222,0.2228,0.2136,0.2136,0.2135,0.2135,0,0.2029,0.2039,0.2043,0.2063,0.2076,0.2087,0.2104,0.2116,0.2119,0.2128,0.2156,0.2154,0.2171,0.2171,0.2163,0.2205,0.2202,0.2194,0.2177,0.2209,0.2228,0.2236,0.2137,0.2137,0.2136,0.2136,0,0,0.2006,0.204,0.2041,0.2054,0.2084,0.209,0.2117,0.2145,0.2164,0.2172,0.22,0.2211,0.2219,0.2225,0.2225,0.224,0.2283,0.2232,0.2233,0.2248,0.2346,0.235,0.2359,0.2283,0.2285,0.2286,0.2342,0,0.2007,0.2028,0.2049,0.2069,0.2081,0.211,0.2132,0.216,0.2181,0.221,0.2228,0.2251,0.2238,0.2246,0.2266,0.2286,0.2305,0.2268,0.2317,0.2318,0.2314,0.2369,0.2295,0.234,0.2349,0.2351,0.2352,0,0.2,0.2018,0.2041,0.2076,0.2085,0.2099,0.2145,0.2168,0.222,0.2239,0.2277,0.2294,0.2335,0.2309,0.2366,0.2344,0.2352,0.2356,0.2358,0.2365,0.2338,0.2311,0.2354,0.2297,0.2364,0.2363,0.2362,0,0.1973,0.2008,0.2027,0.204,0.2082,0.2101,0.2125,0.2176,0.2213,0.2266,0.2299,0.2345,0.2376,0.2399,0.2422,0.2397,0.2479,0.2444,0.2456,0.2455,0.2405,0.2398,0.2396,0.2486,0.2486,0.2486,0.2486,0,0.1963,0.1973,0.2013,0.2022,0.2047,0.2082,0.2121,0.2155,0.2223,0.227,0.2314,0.2364,0.2402,0.2453,0.2453,0.2496,0.2511,0.248,0.248,0.2408,0.2401,0.2359,0.2333,0.2488,0.2487,0.2487,0.2487,0,0.1927,0.1956,0.1976,0.2019,0.2035,0.2051,0.2123,0.2149,0.2218,0.2286,0.2309,0.2402,0.2471,0.2508,0.2556,0.2545,0.251,0.2576,0.2489,0.2479,0.2423,0.24,0.2344,0.227,0.2594,0.2595,0.2595,0,0.1909,0.1916,0.1964,0.1977,0.1997,0.2034,0.2058,0.2135,0.2174,0.2306,0.2333,0.2441,0.2502,0.2592,0.26,0.2624,0.254,0.2559,0.2499,0.2432,0.2407,0.2313,0.2246,0.2432,0.2431,0.243,0.243,0,0.1877,0.1897,0.1918,0.1954,0.1977,0.2002,0.2046,0.2081,0.2174,0.2242,0.2337,0.2406,0.252,0.2539,0.2596,0.2588,0.245,0.2546,0.2497,0.231,0.2187,0.2111,0.2378,0.2423,0.2424,0.2424,0.2425,0.2425,0.1857,0.1873,0.1914,0.1939,0.1954,0.1962,0.1964,0.2017,0.2081,0.2161,0.2279,0.2351,0.2456,0.2535,0.2509,0.2448,0.2422,0.2375,0.2362,0.228,0.2179,0.2441,0.2476,0.2477,0.2477,0.2478,0.2479,0,0.187,0.1893,0.1898,0.1923,0.1907,0.1934,0.1949,0.1937,0.1971,0.207,0.2148,0.2271,0.2319,0.2369,0.2385,0.2287,0.2146,0.2214,0.205,0.1999,0.2255,0.2219,0.2176,0.2176,0.2176,0.2176,0.2176,0.2176,0.1888,0.1911,0.1912,0.1885,0.1879,0.1836,0.1828,0.1811,0.1851,0.1905,0.1974,0.2066,0.2248,0.2326,0.2257,0.2179,0.1981,0.1906,0.1881,0.2061,0.2073,0.2085,0.2044,0.1965,0.1965,0.1533,0.153,0.1528]},{"header":{"parameterUnit":"m.s-1","parameterCategory":2,"la1":30.2991,"la2":30.254,"lo1":-89.0895,"lo2":-89.0444,"dy":0.0017,"dx":0.0017,"nx":28,"ny":28,"refTime":"2023-08-30T03:00:00:Z","depth":"0","parameterNumber":3,"parameterNumberName":"V-component_of_CURRENTS"},"data":[0,0,0,0,0,0,0,0,0,0,0,0,0,0,0,0,0,0,0,0,0,0,0,0,0,0,0,0,0,0,0,0,0,0,0,0,0,0,0,0,0,0,0,0,0,0,0,0,0,0,0,0,0,0,0,0,0,0,-0.0024,-0.0024,0,-0.0056,-0.0056,-0.0056,-0.0083,-0.0083,-0.0083,-0.0084,-0.0151,-0.0152,-0.0154,0,0,0,0,0,0,0,0,0,0,0,0,0,-0.0019,-0.0019,-0.0024,-0.0024,-0.0025,-0.0056,-0.0056,-0.0057,-0.0083,-0.0083,-0.0083,-0.0084,-0.015,-0.0152,-0.0154,0,0,0,0,0,0,0,0,0,0,0,0,0,-0.0033,-0.0019,-0.0024,-0.0041,-0.0043,-0.0055,-0.0056,-0.0057,-0.0083,-0.0083,-0.0083,-0.0084,-0.0149,-0.0152,-0.0154,-0.0162,0,0,-0.0161,-0.0162,0,0,0,0,0,0,0,0,-0.0032,-0.0034,-0.0038,-0.004,-0.0042,-0.0065,-0.0079,-0.0093,-0.0083,-0.0068,-0.0084,-0.0084,-0.0125,-0.0129,-0.0135,-0.0165,-0.0168,-0.0161,-0.0163,-0.0164,-0.0165,0,0,0,0,0,0,0,-0.0031,-0.0033,-0.0037,-0.0039,-0.0041,-0.0058,-0.006,-0.0082,-0.0095,-0.007,-0.0071,-0.0074,-0.0126,-0.0132,-0.0136,-0.0169,-0.0161,-0.0163,-0.0165,-0.0166,-0.0203,-0.0202,0,0,0,0,0,0,-0.0024,-0.0031,-0.0036,-0.0038,-0.0037,-0.0058,-0.006,-0.0058,-0.0094,-0.01,-0.0073,-0.0075,-0.0128,-0.0134,-0.0139,-0.0142,-0.0164,-0.0166,-0.0167,-0.0203,-0.0202,-0.0202,0,0,0,0,0,0,-0.0024,-0.0024,-0.0035,-0.0035,-0.0038,-0.0057,-0.0054,-0.0058,-0.0064,-0.0097,-0.0103,-0.0075,-0.0129,-0.0136,-0.0152,-0.0145,-0.0167,-0.0169,-0.0204,-0.0203,-0.0202,-0.0153,0,0,0,0,0,0,-0.0023,-0.0023,-0.0019,-0.0035,-0.0038,-0.0037,-0.0054,-0.0059,-0.0065,-0.0067,-0.01,-0.0107,-0.0129,-0.0148,-0.0154,-0.0149,-0.0171,-0.0204,-0.0203,-0.0202,-0.0156,-0.0151,-0.0147,0,0,0,0,0,-0.0023,-0.0012,-0.0018,-0.0019,-0.003,-0.0036,-0.0039,-0.0055,-0.0064,-0.0063,-0.0084,-0.0106,-0.0147,-0.0149,-0.0157,-0.0152,-0.0204,-0.0203,-0.0203,-0.0157,-0.0152,-0.0147,0,0,0,0,0,0,-0.0007,-0.0014,-0.0021,-0.0013,-0.0022,-0.004,-0.004,-0.0051,-0.0067,-0.0069,-0.0102,-0.0109,-0.012,-0.0142,-0.0144,-0.016,-0.0179,-0.0179,-0.0142,-0.0138,-0.0133,-0.0129,-0.0173,0,0,0,0,0,-0.0001,0.0004,-0.0007,-0.0002,-0.0004,-0.0022,-0.0026,-0.0036,-0.0051,-0.0058,-0.0081,-0.0104,-0.0122,-0.0134,-0.0153,-0.0163,-0.0187,-0.0164,-0.016,-0.0156,-0.0157,-0.0187,-0.0186,-0.0199,-0.0199,-0.0199,0,0,0.0006,0.0003,0.0005,0.0002,-0.0007,-0.0005,-0.0025,-0.0027,-0.0025,-0.0063,-0.0069,-0.0091,-0.0121,-0.013,-0.0137,-0.0147,-0.0164,-0.0155,-0.0152,-0.0155,-0.0186,-0.0185,-0.0183,-0.0198,-0.0198,-0.0198,0,0,0.0024,0.0021,0.0031,0.0028,0.002,0.001,0.0012,-0.0002,-0.0009,-0.0017,-0.0041,-0.006,-0.0087,-0.0106,-0.012,-0.0106,-0.014,-0.011,-0.0088,-0.0116,-0.0115,-0.0115,-0.0136,-0.0138,-0.0109,-0.0109,-0.0108,0,0.0033,0.0044,0.0033,0.0041,0.0041,0.002,0.003,0.0023,0.0005,0.0001,-0.0012,-0.0051,-0.0077,-0.009,-0.0084,-0.0097,-0.0116,-0.0103,-0.0111,-0.0111,-0.0112,-0.0134,-0.0137,-0.0106,-0.0106,-0.0107,-0.0107,0,0.0058,0.0066,0.0072,0.0075,0.0074,0.008,0.0069,0.007,0.0056,0.0041,0.0026,-0.0008,-0.0033,-0.0042,-0.006,-0.0072,-0.0085,-0.0101,-0.0123,-0.0107,-0.0131,-0.0135,-0.0103,-0.0103,-0.0104,-0.0105,0,0,0.0082,0.0089,0.0091,0.0099,0.0093,0.0097,0.0104,0.0102,0.0109,0.0081,0.0081,0.0045,0.002,0.0004,-0.0023,-0.0048,-0.0066,-0.0072,-0.0074,-0.0091,-0.0123,-0.0118,-0.0122,-0.0083,-0.0084,-0.0084,-0.0135,0,0.0105,0.013,0.0124,0.0145,0.0157,0.0145,0.0157,0.0151,0.0136,0.0131,0.0091,0.0076,0.004,0.0032,-0.0,-0.0045,-0.0075,-0.005,-0.0137,-0.0139,-0.0136,-0.0126,-0.0092,-0.0133,-0.0139,-0.014,-0.014,0,0.0132,0.0146,0.0171,0.0187,0.0192,0.0199,0.0212,0.0219,0.0204,0.0193,0.0163,0.013,0.0094,0.006,-0.0021,-0.0002,-0.006,-0.0102,-0.0105,-0.0122,-0.0142,-0.0152,-0.014,-0.0252,-0.0147,-0.0146,-0.0146,0,0.0158,0.0179,0.0201,0.0205,0.022,0.0231,0.0238,0.0234,0.0255,0.0227,0.0235,0.0174,0.0161,0.0075,-0.0005,-0.0016,-0.0092,-0.0122,-0.0176,-0.0176,-0.0176,-0.0175,-0.0282,-0.019,-0.019,-0.019,-0.019,0,0.0186,0.0204,0.0215,0.0228,0.0265,0.0259,0.0292,0.0293,0.0304,0.0341,0.0266,0.0286,0.0166,0.0113,0.0014,-0.008,-0.0082,-0.0171,-0.019,-0.0156,-0.0153,-0.0273,-0.0347,-0.0192,-0.0191,-0.0191,-0.0191,0,0.0211,0.0217,0.0247,0.0267,0.0278,0.0303,0.0342,0.0373,0.0369,0.0417,0.0416,0.0376,0.0311,0.0187,0.0063,-0.0036,-0.0205,-0.018,-0.0126,-0.0138,-0.0299,-0.037,-0.0513,-0.0566,-0.0256,-0.0256,-0.0257,0,0.0226,0.0244,0.0279,0.0308,0.0318,0.0355,0.0394,0.0407,0.0451,0.0488,0.0526,0.0476,0.0474,0.0284,0.0101,-0.0074,-0.02,-0.0177,-0.0201,-0.0302,-0.0397,-0.0454,-0.0492,-0.0181,-0.0181,-0.018,-0.018,0,0.0259,0.0269,0.0298,0.0362,0.0403,0.0456,0.0511,0.0562,0.0601,0.0655,0.0727,0.0727,0.0553,0.0398,0.0143,0.0017,-0.0254,-0.0175,-0.0298,-0.0362,-0.0414,-0.0474,-0.0153,-0.0176,-0.0177,-0.0177,-0.0177,-0.0177,0.029,0.0322,0.0368,0.043,0.0484,0.0567,0.0625,0.0706,0.0808,0.0913,0.0897,0.0932,0.0664,0.0331,0.0135,-0.021,-0.0238,-0.0315,-0.0397,-0.0448,-0.0492,-0.0158,-0.0191,-0.0191,-0.0192,-0.0192,-0.0192,0,0.035,0.0387,0.044,0.0521,0.0592,0.0609,0.0719,0.0795,0.094,0.1039,0.1113,0.101,0.0691,0.0338,-0.0139,-0.0386,-0.0482,-0.0526,-0.0606,-0.0639,-0.035,-0.0338,-0.0382,-0.0381,-0.0381,-0.0381,-0.0381,-0.0381,0.0388,0.0456,0.0483,0.0607,0.0664,0.0768,0.0838,0.0957,0.1051,0.1182,0.1217,0.1217,0.0947,0.0066,-0.052,-0.0649,-0.0822,-0.0849,-0.0968,-0.0774,-0.076,-0.0748,-0.0753,-0.0883,-0.0884,-0.12,-0.1204,-0.1206]}],[{"header":{"parameterUnit":"m.s-1","parameterCategory":2,"la1":30.2991,"la2":30.254,"lo1":-89.0895,"lo2":-89.0444,"dy":0.0017,"dx":0.0017,"nx":28,"ny":28,"refTime":"2023-08-30T03:00:00:Z","depth":"2","parameterNumber":2,"parameterNumberName":"U-component_of_CURRENTS"},"data":[0,0,0,0,0,0,0,0,0,0,0,0,0,0,0,0,0,0,0,0,0,0,0,0,0,0,0,0,0,0,0,0,0,0,0,0,0,0,0,0,0,0,0,0,0,0,0,0,0,0,0,0,0,0,0,0,0,0,0.1915,0.1915,0,0.1922,0.1922,0.1922,0.1924,0.1924,0.1924,0.1924,0.193,0.193,0.193,0,0,0,0,0,0,0,0,0,0,0,0,0,0.1897,0.1897,0.1915,0.1915,0.1916,0.1922,0.1922,0.1922,0.1924,0.1924,0.1924,0.1924,0.193,0.193,0.193,0,0,0,0,0,0,0,0,0,0,0,0,0,0.1903,0.1897,0.1915,0.1919,0.1919,0.1922,0.1922,0.1922,0.1924,0.1924,0.1924,0.1924,0.193,0.193,0.193,0.1927,0,0,0.193,0.193,0,0,0,0,0,0,0,0,0.1903,0.1903,0.1918,0.1918,0.1919,0.1924,0.1918,0.1924,0.1924,0.192,0.1924,0.1924,0.1929,0.1929,0.1927,0.1927,0.1928,0.193,0.193,0.193,0.193,0,0,0,0,0,0,0,0.1902,0.1903,0.1916,0.1918,0.1919,0.1917,0.1918,0.1919,0.1922,0.1921,0.1921,0.1924,0.1929,0.1927,0.1928,0.1928,0.193,0.193,0.193,0.193,0.1971,0.1972,0,0,0,0,0,0,0.1905,0.1903,0.1916,0.1917,0.1913,0.1918,0.1919,0.1921,0.1922,0.1923,0.1924,0.1924,0.1927,0.1927,0.1928,0.1956,0.193,0.193,0.193,0.197,0.1972,0.1973,0,0,0,0,0,0,0.1904,0.1906,0.1916,0.1911,0.1913,0.1918,0.192,0.1921,0.1929,0.1925,0.1926,0.1933,0.1927,0.1928,0.1939,0.1955,0.193,0.193,0.1969,0.1971,0.1972,0.1991,0,0,0,0,0,0,0.1904,0.1905,0.191,0.1911,0.1913,0.1927,0.192,0.1921,0.193,0.1931,0.1933,0.1933,0.1927,0.1939,0.1939,0.1954,0.1931,0.1968,0.197,0.1972,0.1989,0.1993,0.1997,0,0,0,0,0,0.1903,0.1905,0.191,0.1912,0.1918,0.1928,0.1929,0.1932,0.1931,0.1939,0.194,0.1933,0.1952,0.194,0.194,0.1955,0.1967,0.1969,0.1971,0.1988,0.1993,0.1997,0,0,0,0,0,0,0.1896,0.1906,0.1911,0.1916,0.1928,0.1929,0.1935,0.1938,0.1944,0.1946,0.194,0.1941,0.1962,0.1957,0.1943,0.1975,0.1961,0.1963,0.1973,0.1978,0.1981,0.1991,0.1931,0,0,0,0,0,0.1898,0.1906,0.1916,0.1922,0.1928,0.1934,0.1939,0.1944,0.1948,0.1951,0.1953,0.1958,0.197,0.1972,0.1981,0.199,0.1999,0.2003,0.2007,0.201,0.202,0.2048,0.2055,0.198,0.198,0.198,0,0,0.1896,0.1904,0.1907,0.1922,0.1928,0.194,0.1937,0.1949,0.1961,0.1951,0.1966,0.1973,0.1978,0.1994,0.2003,0.1991,0.2036,0.2013,0.2016,0.2024,0.2051,0.2058,0.2065,0.1982,0.1982,0.1981,0,0,0.1895,0.1905,0.1912,0.1925,0.1943,0.1948,0.1955,0.1965,0.1975,0.1987,0.1992,0.2008,0.2013,0.2025,0.2029,0.2059,0.206,0.2064,0.2083,0.211,0.2116,0.2122,0.214,0.2147,0.206,0.206,0.206,0,0.1894,0.1904,0.1916,0.1929,0.1942,0.1954,0.1967,0.1978,0.1991,0.2006,0.1996,0.2029,0.2029,0.206,0.2071,0.2068,0.2081,0.2062,0.2114,0.212,0.2125,0.2142,0.215,0.2061,0.2061,0.2061,0.2061,0,0.1899,0.1912,0.1919,0.194,0.1956,0.197,0.199,0.2008,0.2017,0.2028,0.2063,0.2066,0.2089,0.2091,0.2086,0.213,0.2127,0.2119,0.21,0.2134,0.215,0.2157,0.2063,0.2062,0.2062,0.2062,0,0,0.1881,0.1916,0.1919,0.1932,0.1966,0.1975,0.2006,0.2037,0.2059,0.2075,0.2106,0.2126,0.2137,0.2145,0.2148,0.2164,0.2208,0.2158,0.2159,0.2172,0.2267,0.2251,0.2258,0.2209,0.2211,0.2212,0.2262,0,0.1883,0.1905,0.1928,0.1951,0.1964,0.1996,0.2022,0.2054,0.2079,0.2112,0.2134,0.2163,0.2155,0.2168,0.2189,0.221,0.2229,0.2195,0.2237,0.2239,0.2217,0.2267,0.2084,0.2112,0.2269,0.227,0.2271,0,0.1878,0.1896,0.192,0.1958,0.1968,0.1987,0.2037,0.2065,0.2121,0.2143,0.2185,0.2204,0.225,0.2228,0.2285,0.2266,0.2274,0.2279,0.2281,0.2266,0.2237,0.2105,0.2119,0.2283,0.2282,0.2281,0.2281,0,0.185,0.1887,0.1907,0.192,0.1966,0.1989,0.2019,0.2075,0.2113,0.2173,0.2205,0.2254,0.2289,0.2313,0.2337,0.2316,0.2392,0.2361,0.2353,0.2351,0.2205,0.2188,0.24,0.24,0.24,0.24,0.24,0,0.1838,0.1851,0.1895,0.1904,0.1935,0.1974,0.202,0.2057,0.2128,0.2173,0.2223,0.227,0.2315,0.2363,0.2365,0.2396,0.242,0.2375,0.2372,0.2207,0.2191,0.2344,0.2337,0.2402,0.2401,0.2401,0.2401,0,0.1802,0.1832,0.1854,0.1903,0.1922,0.1945,0.2025,0.2053,0.2126,0.2191,0.2216,0.2306,0.237,0.2408,0.2454,0.2437,0.2457,0.2456,0.2261,0.2236,0.2386,0.238,0.2451,0.2451,0.2451,0.2451,0.2451,0,0.1785,0.1792,0.1845,0.186,0.1885,0.1932,0.196,0.2042,0.2079,0.2206,0.2228,0.2332,0.2378,0.2455,0.2448,0.246,0.2486,0.2292,0.222,0.2406,0.2396,0.2389,0.2383,0.2026,0.2022,0.2019,0.2017,0,0.1751,0.1773,0.1795,0.1834,0.1863,0.1895,0.1946,0.1977,0.207,0.2124,0.22,0.2256,0.2351,0.2298,0.234,0.2314,0.2275,0.2237,0.2485,0.2052,0.2012,0.2,0.2006,0.1992,0.1994,0.1996,0.1998,0.1999,0.1729,0.1745,0.1782,0.181,0.1834,0.1848,0.1855,0.1899,0.1948,0.2,0.2104,0.212,0.2168,0.2148,0.2089,0.2042,0.2192,0.2077,0.2082,0.2091,0.2044,0.2008,0.1977,0.1979,0.1981,0.1983,0.1985,0,0.172,0.1748,0.1757,0.1784,0.177,0.1813,0.1833,0.181,0.1817,0.1872,0.1915,0.1801,0.1794,0.1833,0.1734,0.1743,0.1681,0.1661,0.156,0.1589,0.1614,0.1538,0.1338,0.1336,0.1334,0.1332,0,0,0.1726,0.1738,0.1741,0.1718,0.1726,0.1701,0.1699,0.1656,0.1662,0.1606,0.1596,0.1733,0.1804,0.1558,0.153,0.1416,0.148,0.1356,0.1882,0.1794,0.1815,0.1873,0.1793,0,0,0,0,0]},{"header":{"parameterUnit":"m.s-1","parameterCategory":2,"la1":30.2991,"la2":30.254,"lo1":-89.0895,"lo2":-89.0444,"dy":0.0017,"dx":0.0017,"nx":28,"ny":28,"refTime":"2023-08-30T03:00:00:Z","depth":"2","parameterNumber":3,"parameterNumberName":"V-component_of_CURRENTS"},"data":[0,0,0,0,0,0,0,0,0,0,0,0,0,0,0,0,0,0,0,0,0,0,0,0,0,0,0,0,0,0,0,0,0,0,0,0,0,0,0,0,0,0,0,0,0,0,0,0,0,0,0,0,0,0,0,0,0,0,0.0099,0.0099,0,0.0065,0.0064,0.0064,0.0039,0.0039,0.0038,0.0038,-0.0028,-0.0029,-0.0031,0,0,0,0,0,0,0,0,0,0,0,0,0,0.011,0.011,0.0099,0.0099,0.0098,0.0065,0.0064,0.0064,0.0039,0.0039,0.0038,0.0038,-0.0027,-0.0029,-0.0031,0,0,0,0,0,0,0,0,0,0,0,0,0,0.0093,0.011,0.0099,0.0082,0.008,0.0065,0.0064,0.0064,0.0039,0.0039,0.0038,0.0038,-0.0027,-0.0029,-0.0031,-0.0041,0,0,-0.0039,-0.004,0,0,0,0,0,0,0,0,0.0094,0.0093,0.0085,0.0083,0.0081,0.0056,0.0044,0.0027,0.0039,0.0054,0.0038,0.0038,-0.0002,-0.0006,-0.0013,-0.0044,-0.0047,-0.0039,-0.004,-0.0041,-0.0042,0,0,0,0,0,0,0,0.0096,0.0094,0.0085,0.0085,0.0082,0.0065,0.0063,0.0041,0.0027,0.0053,0.0051,0.0048,-0.0003,-0.001,-0.0015,-0.0048,-0.0039,-0.0041,-0.0042,-0.0043,-0.0086,-0.0086,0,0,0,0,0,0,0.0103,0.0095,0.0086,0.0084,0.0088,0.0065,0.0063,0.0064,0.0028,0.0022,0.0048,0.0047,-0.0006,-0.0012,-0.0017,-0.0022,-0.0041,-0.0044,-0.0045,-0.0087,-0.0086,-0.0086,0,0,0,0,0,0,0.0103,0.0103,0.0087,0.0089,0.0086,0.0066,0.0067,0.0064,0.0056,0.0025,0.0019,0.0045,-0.0006,-0.0014,-0.0031,-0.0025,-0.0045,-0.0047,-0.0087,-0.0087,-0.0086,-0.0038,0,0,0,0,0,0,0.0104,0.0103,0.0106,0.009,0.0086,0.0083,0.0068,0.0063,0.0055,0.0053,0.002,0.0014,-0.0007,-0.0028,-0.0034,-0.0029,-0.0049,-0.0087,-0.0087,-0.0086,-0.004,-0.0036,-0.0032,0,0,0,0,0,0.0105,0.0112,0.0107,0.0106,0.0091,0.0083,0.008,0.0064,0.0056,0.0056,0.0035,0.0015,-0.0028,-0.0029,-0.0037,-0.0032,-0.0088,-0.0087,-0.0086,-0.0041,-0.0037,-0.0032,0,0,0,0,0,0,0.0118,0.011,0.0104,0.0108,0.0098,0.0079,0.0078,0.0067,0.005,0.0048,0.0017,0.001,-0.0003,-0.0024,-0.0025,-0.0043,-0.0061,-0.0062,-0.0024,-0.002,-0.0016,-0.0007,-0.0051,0,0,0,0,0,0.0123,0.0127,0.0115,0.0117,0.0115,0.0096,0.0091,0.0081,0.0065,0.0058,0.0035,0.0012,-0.0006,-0.0018,-0.0038,-0.0049,-0.0072,-0.0051,-0.0047,-0.0044,-0.0041,-0.0067,-0.0066,-0.0084,-0.0084,-0.0084,0,0,0.0128,0.0125,0.0126,0.012,0.0111,0.0113,0.0092,0.0088,0.0091,0.0052,0.0047,0.0023,-0.0006,-0.0016,-0.0024,-0.0033,-0.005,-0.0043,-0.004,-0.0039,-0.0067,-0.0065,-0.0063,-0.0083,-0.0083,-0.0083,0,0,0.0143,0.0139,0.0148,0.0144,0.0135,0.0126,0.0127,0.0111,0.0104,0.0095,0.0071,0.0052,0.0022,0.0006,-0.0008,0.0003,-0.0029,-0.0003,0.0022,-0.0003,-0.0002,-0.0001,-0.0024,-0.0026,-0.0001,-0.0001,-0.0001,0,0.015,0.0162,0.0148,0.0157,0.0157,0.0135,0.0145,0.0137,0.0117,0.0115,0.0099,0.006,0.0033,0.0023,0.0027,0.0012,-0.0007,0.0009,0.0002,0.0003,0.0003,-0.0022,-0.0024,0.0001,0.0001,0.0001,0.0,0,0.0174,0.0182,0.0187,0.0192,0.0189,0.0195,0.0183,0.0184,0.017,0.0155,0.0141,0.0104,0.0081,0.007,0.005,0.0041,0.0027,0.0011,-0.0007,0.0008,-0.0019,-0.0022,0.0005,0.0004,0.0003,0.0002,0,0,0.0194,0.0203,0.0206,0.0217,0.0211,0.0215,0.0222,0.0222,0.0231,0.0201,0.0204,0.0165,0.014,0.0123,0.0095,0.0072,0.0053,0.0045,0.0043,0.0025,-0.0,-0.0004,-0.0009,0.0038,0.0038,0.0037,-0.0018,0,0.0218,0.0247,0.024,0.0265,0.028,0.0268,0.0282,0.0276,0.0261,0.0258,0.0217,0.0203,0.0162,0.0153,0.0123,0.0075,0.0046,0.007,-0.0015,-0.0018,-0.002,-0.0012,0.0007,-0.004,-0.0021,-0.0022,-0.0022,0,0.0246,0.0263,0.0292,0.0316,0.0321,0.0329,0.0347,0.0354,0.0341,0.0329,0.03,0.0265,0.0229,0.0191,0.011,0.0128,0.0067,0.0023,0.002,-0.0003,-0.0028,-0.0053,-0.0047,-0.0028,-0.0028,-0.0027,-0.0027,0,0.0275,0.0301,0.0328,0.0334,0.0353,0.0366,0.0375,0.0374,0.0394,0.0368,0.0374,0.0316,0.0298,0.0215,0.0125,0.0116,0.0036,0.0009,-0.0055,-0.0056,-0.0067,-0.0068,-0.0056,-0.0056,-0.0056,-0.0056,-0.0055,0,0.0308,0.033,0.0344,0.036,0.0403,0.0398,0.0435,0.0438,0.0448,0.048,0.0409,0.0422,0.0304,0.0247,0.0147,0.0045,0.0049,-0.0049,-0.007,-0.0049,-0.0048,-0.0061,-0.006,-0.0058,-0.0057,-0.0057,-0.0056,0,0.0336,0.0344,0.038,0.0405,0.0417,0.0446,0.0485,0.0517,0.0513,0.0553,0.0551,0.0505,0.043,0.0309,0.0182,0.0086,-0.0021,-0.0063,-0.0029,-0.0044,-0.0107,-0.0103,-0.0146,-0.0147,-0.0147,-0.0147,-0.0148,0,0.0354,0.0375,0.0415,0.0444,0.0455,0.0496,0.0535,0.055,0.0589,0.0614,0.0645,0.0586,0.0562,0.0369,0.0192,0.0016,-0.0014,-0.0091,-0.0112,-0.01,-0.0116,-0.0111,-0.0108,-0.011,-0.011,-0.011,-0.011,0,0.039,0.04,0.0431,0.0493,0.0534,0.059,0.0642,0.0687,0.0721,0.0755,0.0796,0.0777,0.0603,0.0432,0.0189,0.007,-0.0062,-0.0097,-0.0092,-0.0085,-0.0069,-0.0084,-0.0081,-0.011,-0.011,-0.011,-0.011,-0.011,0.0417,0.0447,0.0489,0.0546,0.0602,0.0679,0.0729,0.0793,0.0868,0.0922,0.0909,0.0878,0.0685,0.0377,0.0165,-0.0063,-0.0052,-0.0141,-0.014,-0.0139,-0.0119,-0.0105,-0.015,-0.015,-0.015,-0.015,-0.015,0,0.0455,0.0489,0.0542,0.0612,0.0675,0.0702,0.0803,0.0849,0.0941,0.0988,0.1012,0.0827,0.064,0.0409,0.0076,-0.0119,-0.0137,-0.0188,-0.0168,-0.0166,-0.0164,-0.0146,-0.0184,-0.0184,-0.0185,-0.0186,0,0,0.0477,0.0529,0.0551,0.0654,0.071,0.0798,0.0858,0.0929,0.098,0.1011,0.0997,0.0973,0.0709,0.046,0.0195,-0.0,-0.0042,-0.0039,0.0012,0.0068,0.0072,-0.0111,-0.0076,0,0,0,0,0]}],[{"header":{"parameterUnit":"m.s-1","parameterCategory":2,"la1":30.2991,"la2":30.254,"lo1":-89.0895,"lo2":-89.0444,"dy":0.0017,"dx":0.0017,"nx":28,"ny":28,"refTime":"2023-08-30T03:00:00:Z","depth":"4","parameterNumber":2,"parameterNumberName":"U-component_of_CURRENTS"},"data":[0,0,0,0,0,0,0,0,0,0,0,0,0,0,0,0,0,0,0,0,0,0,0,0,0,0,0,0,0,0,0,0,0,0,0,0,0,0,0,0,0,0,0,0,0,0,0,0,0,0,0,0,0,0,0,0,0,0,0.1235,0.1236,0,0.1282,0.1282,0.1282,0.1327,0.1328,0.1328,0.1329,0.1385,0.1386,0.1387,0,0,0,0,0,0,0,0,0,0,0,0,0,0.1181,0.1182,0.1235,0.1236,0.1236,0.1281,0.1282,0.1282,0.1327,0.1328,0.1329,0.1329,0.1385,0.1386,0.1387,0,0,0,0,0,0,0,0,0,0,0,0,0,0.1213,0.1182,0.1235,0.1265,0.1268,0.1281,0.1282,0.1283,0.1327,0.1328,0.1329,0.133,0.1384,0.1386,0.1387,0.1374,0,0,0.1391,0.1391,0,0,0,0,0,0,0,0,0.1211,0.1214,0.126,0.1263,0.1267,0.1301,0.1284,0.1314,0.1326,0.1303,0.1329,0.133,0.1358,0.1361,0.1366,0.1377,0.1379,0.1391,0.1392,0.1392,0.1392,0,0,0,0,0,0,0,0.1209,0.1213,0.1252,0.126,0.1265,0.1275,0.1281,0.129,0.1323,0.1305,0.1309,0.1316,0.136,0.1364,0.1367,0.138,0.1391,0.1392,0.1393,0.1393,0.1474,0.1476,0,0,0,0,0,0,0.1205,0.1211,0.1251,0.1254,0.1242,0.1275,0.1281,0.1288,0.1323,0.133,0.1315,0.1318,0.1362,0.1366,0.137,0.1435,0.1392,0.1393,0.1394,0.1473,0.1475,0.1476,0,0,0,0,0,0,0.1203,0.1208,0.1249,0.1234,0.124,0.1275,0.1282,0.1288,0.1323,0.133,0.1337,0.1347,0.1363,0.1368,0.1406,0.1435,0.1394,0.1395,0.1471,0.1474,0.1476,0.1516,0,0,0,0,0,0,0.1201,0.1207,0.1224,0.1234,0.1241,0.1277,0.1281,0.1288,0.1325,0.133,0.136,0.1364,0.1364,0.1404,0.1407,0.1436,0.1396,0.147,0.1472,0.1475,0.1513,0.1519,0.1525,0,0,0,0,0,0.1199,0.1212,0.1224,0.123,0.1258,0.1278,0.1283,0.131,0.1325,0.1345,0.1368,0.1365,0.1423,0.1406,0.141,0.1439,0.1468,0.1472,0.1475,0.151,0.1518,0.1524,0,0,0,0,0,0,0.1199,0.1218,0.1232,0.1251,0.1274,0.1286,0.131,0.1325,0.1358,0.1373,0.1379,0.1385,0.1432,0.143,0.1411,0.1471,0.1447,0.1451,0.1473,0.148,0.1486,0.1485,0.1397,0,0,0,0,0,0.1205,0.1223,0.1241,0.1262,0.1275,0.1298,0.1315,0.1333,0.1356,0.1374,0.1395,0.1419,0.1441,0.1457,0.1475,0.1503,0.1505,0.1526,0.1532,0.1537,0.154,0.157,0.1578,0.1487,0.1487,0.1487,0,0,0.1211,0.1225,0.1237,0.1264,0.1285,0.1304,0.1312,0.1346,0.137,0.1373,0.1423,0.1443,0.1455,0.1492,0.1512,0.1497,0.1565,0.1541,0.1545,0.1545,0.1574,0.1583,0.159,0.1489,0.1488,0.1488,0,0,0.1221,0.1247,0.1262,0.1283,0.1319,0.133,0.1346,0.1377,0.1405,0.1444,0.1459,0.1495,0.1527,0.1542,0.1551,0.1599,0.1598,0.1613,0.164,0.1669,0.1676,0.1683,0.1698,0.1705,0.1613,0.1614,0.1614,0,0.1232,0.1249,0.1272,0.1291,0.1312,0.1343,0.1364,0.1392,0.1435,0.146,0.1469,0.1534,0.1547,0.1587,0.1609,0.1612,0.1626,0.161,0.1676,0.1683,0.1689,0.1702,0.171,0.1616,0.1616,0.1615,0.1615,0,0.1243,0.1269,0.1282,0.1314,0.1341,0.1367,0.1402,0.1441,0.1476,0.1501,0.1564,0.1585,0.1623,0.1637,0.1639,0.1694,0.169,0.1681,0.1655,0.17,0.1711,0.1719,0.1619,0.1618,0.1618,0.1617,0,0,0.123,0.1279,0.1287,0.1304,0.1357,0.1372,0.1426,0.1471,0.1506,0.1559,0.1604,0.1652,0.1677,0.1689,0.1704,0.173,0.1787,0.1731,0.1732,0.174,0.1852,0.1743,0.174,0.1797,0.1798,0.18,0.1842,0,0.1233,0.1264,0.1294,0.1331,0.1347,0.1398,0.1437,0.1489,0.1537,0.159,0.1634,0.1684,0.1693,0.1721,0.1753,0.1783,0.1809,0.1776,0.1811,0.1812,0.1705,0.1746,0.1805,0.1847,0.1849,0.185,0.1851,0,0.1227,0.1249,0.1284,0.1332,0.1346,0.1379,0.1449,0.1492,0.1572,0.1612,0.1676,0.1714,0.178,0.1773,0.1848,0.1832,0.185,0.1862,0.1864,0.1751,0.1716,0.1794,0.1864,0.1863,0.1862,0.1861,0.1861,0,0.1187,0.1238,0.1265,0.1284,0.1346,0.1383,0.1427,0.1506,0.1551,0.164,0.1684,0.1755,0.1808,0.1846,0.1894,0.1881,0.1961,0.1939,0.1853,0.1846,0.1913,0.1905,0.1983,0.1983,0.1983,0.1983,0.1983,0,0.116,0.1184,0.1253,0.1266,0.1306,0.1365,0.1424,0.1478,0.1564,0.1616,0.1701,0.175,0.1835,0.1894,0.1912,0.1909,0.198,0.1862,0.1851,0.1929,0.1923,0.1918,0.1909,0.1985,0.1984,0.1984,0.1984,0,0.111,0.1155,0.1188,0.1261,0.1289,0.1323,0.1422,0.1457,0.1553,0.1626,0.1663,0.1774,0.1845,0.1909,0.1972,0.1925,0.1932,0.1912,0.1997,0.199,0.1789,0.1783,0.1805,0.1801,0.1798,0.1796,0.1794,0,0.1083,0.1096,0.1177,0.1202,0.1242,0.1306,0.1345,0.1442,0.1483,0.1626,0.1649,0.1764,0.1825,0.1824,0.1897,0.1913,0.1895,0.1876,0.1821,0.1784,0.1772,0.1771,0.1768,0.1789,0.1788,0.1787,0.1787,0,0.103,0.1073,0.1101,0.1154,0.12,0.1242,0.1311,0.1329,0.1441,0.1544,0.1594,0.1636,0.1712,0.1755,0.1787,0.1795,0.1871,0.1845,0.185,0.1798,0.1766,0.1756,0.1758,0.1777,0.1778,0.1779,0.178,0,0.0996,0.1005,0.1052,0.1086,0.1143,0.116,0.1205,0.125,0.1302,0.1452,0.1468,0.1589,0.1694,0.1696,0.1727,0.1727,0.1694,0.1624,0.164,0.1652,0.1584,0.152,0.1448,0,0,0,0,0,0.095,0.0949,0.0979,0.1008,0.1062,0.1093,0.117,0.1218,0.1327,0.1321,0.1388,0.1449,0.1499,0.1564,0.1533,0.1665,0.1704,0.1621,0.1631,0.172,0.1732,0.1666,0,0,0,0,0,0,0.0917,0.0943,0.0947,0.0935,0.0944,0.0987,0.1032,0.1105,0.1107,0.1228,0.1264,0.1356,0.143,0.1502,0.1505,0.1523,0.1497,0.1697,0.1692,0.1714,0.1724,0.1734,0.167,0,0,0,0,0]},{"header":{"parameterUnit":"m.s-1","parameterCategory":2,"la1":30.2991,"la2":30.254,"lo1":-89.0895,"lo2":-89.0444,"dy":0.0017,"dx":0.0017,"nx":28,"ny":28,"refTime":"2023-08-30T03:00:00:Z","depth":"4","parameterNumber":3,"parameterNumberName":"V-component_of_CURRENTS"},"data":[0,0,0,0,0,0,0,0,0,0,0,0,0,0,0,0,0,0,0,0,0,0,0,0,0,0,0,0,0,0,0,0,0,0,0,0,0,0,0,0,0,0,0,0,0,0,0,0,0,0,0,0,0,0,0,0,0,0,0.0111,0.0111,0,0.0086,0.0086,0.0085,0.0071,0.0071,0.0071,0.0071,0.0023,0.0022,0.002,0,0,0,0,0,0,0,0,0,0,0,0,0,0.0122,0.0122,0.0111,0.0111,0.0111,0.0086,0.0086,0.0085,0.0071,0.0071,0.0071,0.0071,0.0023,0.0022,0.002,0,0,0,0,0,0,0,0,0,0,0,0,0,0.0109,0.0122,0.0111,0.0101,0.01,0.0086,0.0086,0.0085,0.0071,0.0071,0.0071,0.0071,0.0024,0.0022,0.002,0.0008,0,0,0.0014,0.0013,0,0,0,0,0,0,0,0,0.0109,0.0108,0.0103,0.0102,0.01,0.0082,0.0072,0.0058,0.0071,0.0082,0.0071,0.0071,0.0041,0.0038,0.0032,0.0006,0.0004,0.0014,0.0013,0.0012,0.0011,0,0,0,0,0,0,0,0.011,0.0109,0.0101,0.0103,0.0101,0.0089,0.0087,0.0069,0.0061,0.0081,0.008,0.0078,0.004,0.0034,0.0031,0.0003,0.0014,0.0012,0.0011,0.001,-0.0031,-0.0031,0,0,0,0,0,0,0.0116,0.011,0.0102,0.01,0.0105,0.0089,0.0087,0.0088,0.0061,0.0058,0.0078,0.0077,0.0038,0.0033,0.0029,0.0027,0.0012,0.001,0.0009,-0.0031,-0.0031,-0.0031,0,0,0,0,0,0,0.0116,0.0115,0.0103,0.0105,0.0102,0.0089,0.009,0.0087,0.0083,0.006,0.0055,0.0077,0.0038,0.0032,0.0017,0.0024,0.0009,0.0008,-0.0031,-0.0031,-0.0031,0.0013,0,0,0,0,0,0,0.0117,0.0116,0.0119,0.0105,0.0102,0.0099,0.009,0.0087,0.0082,0.0081,0.0057,0.0053,0.0037,0.002,0.0016,0.0021,0.0006,-0.0031,-0.0031,-0.0031,0.0012,0.0015,0.0018,0,0,0,0,0,0.0117,0.0122,0.0119,0.0118,0.0107,0.0099,0.0096,0.0086,0.0082,0.0082,0.0067,0.0053,0.0018,0.0019,0.0013,0.0019,-0.0031,-0.0031,-0.0031,0.0011,0.0014,0.0018,0,0,0,0,0,0,0.0126,0.012,0.0117,0.0119,0.0112,0.0097,0.0096,0.0089,0.0077,0.0076,0.0053,0.0048,0.0037,0.002,0.0022,0.0006,-0.0009,-0.001,0.0025,0.0028,0.0031,0.0043,0.0004,0,0,0,0,0,0.013,0.0133,0.0123,0.0125,0.0123,0.011,0.0106,0.01,0.0087,0.0082,0.0066,0.0047,0.0033,0.0025,0.0007,-0.0002,-0.002,-0.0003,0.0,0.0003,0.0009,-0.0011,-0.0009,-0.003,-0.003,-0.003,0,0,0.0134,0.0131,0.0132,0.0127,0.0121,0.0124,0.0108,0.0104,0.0108,0.0078,0.0077,0.0056,0.0032,0.0024,0.0018,0.0011,-0.0001,0.0003,0.0006,0.001,-0.0011,-0.0009,-0.0007,-0.003,-0.003,-0.003,0,0,0.0144,0.0141,0.0148,0.0146,0.014,0.0133,0.0134,0.0122,0.0119,0.0112,0.0094,0.0079,0.0054,0.0043,0.0033,0.0039,0.0014,0.0032,0.0058,0.0039,0.0041,0.0042,0.002,0.0019,0.0034,0.0034,0.0034,0,0.015,0.016,0.0148,0.0156,0.0159,0.0141,0.0152,0.0145,0.013,0.0131,0.0117,0.0087,0.0065,0.0061,0.0063,0.0047,0.003,0.0049,0.0044,0.0045,0.0045,0.0023,0.0021,0.0036,0.0036,0.0036,0.0036,0,0.0167,0.0177,0.0181,0.0188,0.0187,0.0193,0.0185,0.0187,0.0178,0.0168,0.0159,0.0128,0.0112,0.0101,0.0083,0.0079,0.0063,0.005,0.0038,0.005,0.0025,0.0023,0.004,0.0039,0.0038,0.0038,0,0,0.018,0.0193,0.0195,0.021,0.0207,0.0212,0.0221,0.0226,0.0239,0.0214,0.0223,0.019,0.017,0.0157,0.0132,0.0113,0.0098,0.0086,0.0084,0.0071,0.0054,0.0039,0.0035,0.0084,0.0084,0.0084,0.0034,0,0.0201,0.0228,0.0225,0.0253,0.0268,0.0263,0.0278,0.0278,0.0268,0.027,0.0237,0.0229,0.0192,0.0186,0.0162,0.0117,0.0094,0.0113,0.0039,0.0037,0.0027,0.0032,0.0083,0.0032,0.0032,0.0031,0.0031,0,0.0222,0.024,0.0271,0.0301,0.0308,0.032,0.0345,0.0356,0.035,0.034,0.0321,0.0291,0.0264,0.0228,0.0159,0.0172,0.0117,0.0077,0.0074,0.0045,0.0018,0.0016,0.0026,0.0027,0.0027,0.0027,0.0028,0,0.0245,0.0275,0.0305,0.0313,0.0339,0.0357,0.0372,0.0377,0.0396,0.0384,0.0386,0.0343,0.0325,0.0257,0.017,0.0164,0.0089,0.0069,0.0004,0.0002,0.0011,0.001,0.0018,0.0018,0.0018,0.0018,0.0018,0,0.027,0.0296,0.0321,0.0337,0.0384,0.0389,0.043,0.0438,0.045,0.047,0.0425,0.0423,0.0331,0.0276,0.019,0.0092,0.0101,0.0011,-0.001,0.0029,0.0031,0.0009,0.0008,0.0016,0.0016,0.0017,0.0017,0,0.0289,0.0304,0.0344,0.0379,0.0395,0.0429,0.0474,0.0501,0.0506,0.0531,0.053,0.0485,0.0409,0.0312,0.0198,0.0122,0.0028,-0.0012,0.0041,0.0024,-0.0053,-0.0051,-0.0087,-0.0088,-0.0089,-0.009,-0.009,0,0.0301,0.0323,0.0374,0.0402,0.0419,0.0467,0.0503,0.0527,0.0552,0.0565,0.0578,0.0521,0.0473,0.0311,0.0198,0.0039,0.0009,-0.0042,-0.0053,-0.0046,-0.0063,-0.0059,-0.0056,-0.0091,-0.0091,-0.0092,-0.0092,0,0.0322,0.0339,0.0369,0.0426,0.0468,0.0522,0.0569,0.0591,0.0618,0.0628,0.0612,0.053,0.0442,0.031,0.0188,0.0071,-0.0008,-0.005,-0.005,-0.0061,-0.0052,-0.0066,-0.0062,-0.0094,-0.0094,-0.0094,-0.0094,0,0.0333,0.0356,0.0391,0.044,0.0499,0.0549,0.0579,0.0607,0.0635,0.0645,0.0638,0.0545,0.0497,0.0326,0.0214,0.0099,0.006,0.0014,0.001,0.0012,0.005,0.0077,0.006,0,0,0,0,0,0.0336,0.0352,0.0401,0.0448,0.051,0.0542,0.061,0.0634,0.0661,0.0654,0.0647,0.0564,0.04,0.0335,0.0216,0.0184,0.0032,0.0038,-0.0025,-0.0109,-0.0106,-0.008,0,0,0,0,0,0,0.0332,0.037,0.039,0.0444,0.0478,0.0544,0.0588,0.0613,0.061,0.0624,0.0543,0.0516,0.0361,0.0461,0.0205,0.0172,0.0111,-0.0031,-0.0034,-0.0111,-0.0108,-0.0105,-0.0077,0,0,0,0,0]}]]